Terug naar catalogus

CRRES DEB

CANISTER

ActiefHEO
NORAD 29531·DEBRIS·🇺🇸 United States

Gelanceerd Jul 25, 1990 vanaf Cape Canaveral Space Force Station

Loading…

Volgende Passages (komende 24 uur)

TLE

VersSource: Space-Track

Epoch: Sep 14, 2026, 10:52 UTC

1 29531U 90065Y   26257.45336694  .00001100  00000-0  14473-2 0  9995
2 29531  17.9989 340.3171 7064904 230.0154  43.0023  2.51413539184793

Volg CRRES DEB in realtime met AllMySat

Download on the App Store